User: anonymous   Login
Location: Unspecified
(0.0000°N, 0.0000°E)
Time: 23:51:05
(UTC+02:00)
Language:

Cosmos 1898 Rocket - Orbit

View from above orbital plane
View from above orbital plane
View from above satellite
View from above satellite

Ground track
Ground track

The orbit data is extracted from the following two-line orbital elements,

1 18586U 87098B   16118.90528861 +.00000073 +00000-0 +33645-4 0  9991
2 18586 074.0072 339.9948 0020398 136.8210 322.2438 14.36715112487417
Epoch (UTC): 27 April 2016 21:43:36
Eccentricity: 0.0020398
inclination: 74.0072°
perigee height: 755 km
apogee height: 784 km
right ascension of ascending node: 339.9948°
argument of perigee: 136.8210°
revolutions per day: 14.36715112
mean anomaly at epoch: 322.2438°
orbit number at epoch: 48741

The dashed part of the orbit path shows where the satellite is in the earth's shadow,  

DLR